Year,Month,Day,Hour,Minute,Value (Times are PST for insolation in W/m^2)
2011,05,29,00,00,0.00
2011,05,29,00,01,0.00
2011,05,29,00,02,0.00
2011,05,29,00,03,0.00
2011,05,29,00,04,0.00
2011,05,29,00,05,0.00
2011,05,29,00,06,0.00
2011,05,29,00,07,0.00
2011,05,29,00,08,0.00
2011,05,29,00,09,0.00
2011,05,29,00,10,0.00
2011,05,29,00,11,0.00
2011,05,29,00,12,0.00
2011,05,29,00,13,0.00
2011,05,29,00,14,0.00
2011,05,29,00,15,0.00
2011,05,29,00,16,0.00
2011,05,29,00,17,0.00
2011,05,29,00,18,0.00
2011,05,29,00,19,0.00
2011,05,29,00,20,0.00
2011,05,29,00,21,0.00
2011,05,29,00,22,0.00
2011,05,29,00,23,0.00
2011,05,29,00,24,0.00
2011,05,29,00,25,0.00
2011,05,29,00,26,0.00
2011,05,29,00,27,0.00
2011,05,29,00,28,0.00
2011,05,29,00,29,0.00
2011,05,29,00,30,0.00
2011,05,29,00,31,0.00
2011,05,29,00,32,0.00
2011,05,29,00,33,0.00
2011,05,29,00,34,0.00
2011,05,29,00,35,0.00
2011,05,29,00,36,0.00
2011,05,29,00,37,0.00
2011,05,29,00,38,0.00
2011,05,29,00,39,0.00
2011,05,29,00,40,0.00
2011,05,29,00,41,0.00
2011,05,29,00,42,0.00
2011,05,29,00,43,0.00
2011,05,29,00,44,0.00
2011,05,29,00,45,0.00
2011,05,29,00,46,0.00
2011,05,29,00,47,0.00
2011,05,29,00,48,0.00
2011,05,29,00,49,0.00
2011,05,29,00,50,0.00
2011,05,29,00,51,0.00
2011,05,29,00,52,0.00
2011,05,29,00,53,0.00
2011,05,29,00,54,0.00
2011,05,29,00,55,0.00
2011,05,29,00,56,0.00
2011,05,29,00,57,0.00
2011,05,29,00,58,0.00
2011,05,29,00,59,0.00
2011,05,29,01,00,0.00
2011,05,29,01,01,0.00
2011,05,29,01,02,0.00
2011,05,29,01,03,0.00
2011,05,29,01,04,0.00
2011,05,29,01,05,0.00
2011,05,29,01,06,0.00
2011,05,29,01,07,0.00
2011,05,29,01,08,0.00
2011,05,29,01,09,0.00
2011,05,29,01,10,0.00
2011,05,29,01,11,0.00
2011,05,29,01,12,0.00
2011,05,29,01,13,0.00
2011,05,29,01,14,0.00
2011,05,29,01,15,0.00
2011,05,29,01,16,0.00
2011,05,29,01,17,0.00
2011,05,29,01,18,0.00
2011,05,29,01,19,0.00
2011,05,29,01,20,0.00
2011,05,29,01,21,0.00
2011,05,29,01,22,0.00
2011,05,29,01,23,0.00
2011,05,29,01,24,0.00
2011,05,29,01,25,0.00
2011,05,29,01,26,0.00
2011,05,29,01,27,0.00
2011,05,29,01,28,0.00
2011,05,29,01,29,0.00
2011,05,29,01,30,0.00
2011,05,29,01,31,0.00
2011,05,29,01,32,0.00
2011,05,29,01,33,0.00
2011,05,29,01,34,0.00
2011,05,29,01,35,0.00
2011,05,29,01,36,0.00
2011,05,29,01,37,0.00
2011,05,29,01,38,0.00
2011,05,29,01,39,0.00
2011,05,29,01,40,0.00
2011,05,29,01,41,0.00
2011,05,29,01,42,0.00
2011,05,29,01,43,0.00
2011,05,29,01,44,0.00
2011,05,29,01,45,0.00
2011,05,29,01,46,0.00
2011,05,29,01,47,0.00
2011,05,29,01,48,0.00
2011,05,29,01,49,0.00
2011,05,29,01,50,0.00
2011,05,29,01,51,0.00
2011,05,29,01,52,0.00
2011,05,29,01,53,0.00
2011,05,29,01,54,0.00
2011,05,29,01,55,0.00
2011,05,29,01,56,0.00
2011,05,29,01,57,0.00
2011,05,29,01,58,0.00
2011,05,29,01,59,0.00
2011,05,29,02,00,0.00
2011,05,29,02,01,0.00
2011,05,29,02,02,0.00
2011,05,29,02,03,0.00
2011,05,29,02,04,0.00
2011,05,29,02,05,0.00
2011,05,29,02,06,0.00
2011,05,29,02,07,0.00
2011,05,29,02,08,0.00
2011,05,29,02,09,0.00
2011,05,29,02,10,0.00
2011,05,29,02,11,0.00
2011,05,29,02,12,0.00
2011,05,29,02,13,0.00
2011,05,29,02,14,0.00
2011,05,29,02,15,0.00
2011,05,29,02,16,0.00
2011,05,29,02,17,0.00
2011,05,29,02,18,0.00
2011,05,29,02,19,0.00
2011,05,29,02,20,0.00
2011,05,29,02,21,0.00
2011,05,29,02,22,0.00
2011,05,29,02,23,0.00
2011,05,29,02,24,0.00
2011,05,29,02,25,0.00
2011,05,29,02,26,0.00
2011,05,29,02,27,0.00
2011,05,29,02,28,0.00
2011,05,29,02,29,0.00
2011,05,29,02,30,0.00
2011,05,29,02,31,0.00
2011,05,29,02,32,0.00
2011,05,29,02,33,0.00
2011,05,29,02,34,0.00
2011,05,29,02,35,0.00
2011,05,29,02,36,0.00
2011,05,29,02,37,0.00
2011,05,29,02,38,0.00
2011,05,29,02,39,0.00
2011,05,29,02,40,0.00
2011,05,29,02,41,0.00
2011,05,29,02,42,0.00
2011,05,29,02,43,0.00
2011,05,29,02,44,0.00
2011,05,29,02,45,0.00
2011,05,29,02,46,0.00
2011,05,29,02,47,0.00
2011,05,29,02,48,0.00
2011,05,29,02,49,0.00
2011,05,29,02,50,0.00
2011,05,29,02,51,0.00
2011,05,29,02,52,0.00
2011,05,29,02,53,0.00
2011,05,29,02,54,0.00
2011,05,29,02,55,0.00
2011,05,29,02,56,0.00
2011,05,29,02,57,0.00
2011,05,29,02,58,0.00
2011,05,29,02,59,0.00
2011,05,29,03,00,0.00
2011,05,29,03,01,0.00
2011,05,29,03,02,0.00
2011,05,29,03,03,0.00
2011,05,29,03,04,0.00
2011,05,29,03,05,0.00
2011,05,29,03,06,0.00
2011,05,29,03,07,0.00
2011,05,29,03,08,0.00
2011,05,29,03,09,0.00
2011,05,29,03,10,0.00
2011,05,29,03,11,0.00
2011,05,29,03,12,0.00
2011,05,29,03,13,0.00
2011,05,29,03,14,0.00
2011,05,29,03,15,0.00
2011,05,29,03,16,0.00
2011,05,29,03,17,0.00
2011,05,29,03,18,0.00
2011,05,29,03,19,0.00
2011,05,29,03,20,0.00
2011,05,29,03,21,0.00
2011,05,29,03,22,0.00
2011,05,29,03,23,0.00
2011,05,29,03,24,0.00
2011,05,29,03,25,0.00
2011,05,29,03,26,0.00
2011,05,29,03,27,0.00
2011,05,29,03,28,0.00
2011,05,29,03,29,0.00
2011,05,29,03,30,0.00
2011,05,29,03,31,0.00
2011,05,29,03,32,0.00
2011,05,29,03,33,0.00
2011,05,29,03,34,0.00
2011,05,29,03,35,0.00
2011,05,29,03,36,0.00
2011,05,29,03,37,0.00
2011,05,29,03,38,0.00
2011,05,29,03,39,0.00
2011,05,29,03,40,0.00
2011,05,29,03,41,0.00
2011,05,29,03,42,0.00
2011,05,29,03,43,0.00
2011,05,29,03,44,0.00
2011,05,29,03,45,0.00
2011,05,29,03,46,0.00
2011,05,29,03,47,0.00
2011,05,29,03,48,0.00
2011,05,29,03,49,0.00
2011,05,29,03,50,0.00
2011,05,29,03,51,0.00
2011,05,29,03,52,0.00
2011,05,29,03,53,0.00
2011,05,29,03,54,0.00
2011,05,29,03,55,0.00
2011,05,29,03,56,0.00
2011,05,29,03,57,0.00
2011,05,29,03,58,0.00
2011,05,29,03,59,0.00
2011,05,29,04,00,0.00
2011,05,29,04,01,0.00
2011,05,29,04,02,0.00
2011,05,29,04,03,0.00
2011,05,29,04,04,0.00
2011,05,29,04,05,0.00
2011,05,29,04,06,0.00
2011,05,29,04,07,0.00
2011,05,29,04,08,0.00
2011,05,29,04,09,0.00
2011,05,29,04,10,0.00
2011,05,29,04,11,0.00
2011,05,29,04,12,0.00
2011,05,29,04,13,0.00
2011,05,29,04,14,0.00
2011,05,29,04,15,0.00
2011,05,29,04,16,0.00
2011,05,29,04,17,0.00
2011,05,29,04,18,0.00
2011,05,29,04,19,0.00
2011,05,29,04,20,0.00
2011,05,29,04,21,0.00
2011,05,29,04,22,0.00
2011,05,29,04,23,0.00
2011,05,29,04,24,0.00
2011,05,29,04,25,0.00
2011,05,29,04,26,0.00
2011,05,29,04,27,0.00
2011,05,29,04,28,0.00
2011,05,29,04,29,0.00
2011,05,29,04,30,0.00
2011,05,29,04,31,0.00
2011,05,29,04,32,0.00
2011,05,29,04,33,0.00
2011,05,29,04,34,0.00
2011,05,29,04,35,0.00
2011,05,29,04,36,0.00
2011,05,29,04,37,0.00
2011,05,29,04,38,0.00
2011,05,29,04,39,0.00
2011,05,29,04,40,0.00
2011,05,29,04,41,0.00
2011,05,29,04,42,0.00
2011,05,29,04,43,0.00
2011,05,29,04,44,0.00
2011,05,29,04,45,0.00
2011,05,29,04,46,0.00
2011,05,29,04,47,0.00
2011,05,29,04,48,0.00
2011,05,29,04,49,0.00
2011,05,29,04,50,0.00
2011,05,29,04,51,0.00
2011,05,29,04,52,0.00
2011,05,29,04,53,0.00
2011,05,29,04,54,0.00
2011,05,29,04,55,0.00
2011,05,29,04,56,0.00
2011,05,29,04,57,0.00
2011,05,29,04,58,0.00
2011,05,29,04,59,0.00
2011,05,29,05,00,0.00
2011,05,29,05,01,0.00
2011,05,29,05,02,0.00
2011,05,29,05,03,0.00
2011,05,29,05,04,0.00
2011,05,29,05,05,0.00
2011,05,29,05,06,0.00
2011,05,29,05,07,0.00
2011,05,29,05,08,0.00
2011,05,29,05,09,0.00
2011,05,29,05,10,0.00
2011,05,29,05,11,0.00
2011,05,29,05,12,0.00
2011,05,29,05,13,0.00
2011,05,29,05,14,0.00
2011,05,29,05,15,0.00
2011,05,29,05,16,0.00
2011,05,29,05,17,0.00
2011,05,29,05,18,0.00
2011,05,29,05,19,0.00
2011,05,29,05,20,0.00
2011,05,29,05,21,0.00
2011,05,29,05,22,0.00
2011,05,29,05,23,2.50
2011,05,29,05,24,5.00
2011,05,29,05,25,5.00
2011,05,29,05,26,5.00
2011,05,29,05,27,5.10
2011,05,29,05,28,7.00
2011,05,29,05,29,7.00
2011,05,29,05,30,7.70
2011,05,29,05,31,9.00
2011,05,29,05,32,10.20
2011,05,29,05,33,11.00
2011,05,29,05,34,11.00
2011,05,29,05,35,11.90
2011,05,29,05,36,12.00
2011,05,29,05,37,12.40
2011,05,29,05,38,14.00
2011,05,29,05,39,14.00
2011,05,29,05,40,15.00
2011,05,29,05,41,16.00
2011,05,29,05,42,16.00
2011,05,29,05,43,17.60
2011,05,29,05,44,18.00
2011,05,29,05,45,18.10
2011,05,29,05,46,19.00
2011,05,29,05,47,19.70
2011,05,29,05,48,21.00
2011,05,29,05,49,21.00
2011,05,29,05,50,22.30
2011,05,29,05,51,23.00
2011,05,29,05,52,23.00
2011,05,29,05,53,23.10
2011,05,29,05,54,25.00
2011,05,29,05,55,25.00
2011,05,29,05,56,25.00
2011,05,29,05,57,25.00
2011,05,29,05,58,25.00
2011,05,29,05,59,25.00
2011,05,29,06,00,25.80
2011,05,29,06,01,26.00
2011,05,29,06,02,26.00
2011,05,29,06,03,26.40
2011,05,29,06,04,28.00
2011,05,29,06,05,28.80
2011,05,29,06,06,31.10
2011,05,29,06,07,32.70
2011,05,29,06,08,35.90
2011,05,29,06,09,38.70
2011,05,29,06,10,43.80
2011,05,29,06,11,46.40
2011,05,29,06,12,57.10
2011,05,29,06,13,61.00
2011,05,29,06,14,63.00
2011,05,29,06,15,63.00
2011,05,29,06,16,62.30
2011,05,29,06,17,62.80
2011,05,29,06,18,64.80
2011,05,29,06,19,64.50
2011,05,29,06,20,58.90
2011,05,29,06,21,53.30
2011,05,29,06,22,54.80
2011,05,29,06,23,57.00
2011,05,29,06,24,56.80
2011,05,29,06,25,56.00
2011,05,29,06,26,57.60
2011,05,29,06,27,59.80
2011,05,29,06,28,60.30
2011,05,29,06,29,62.20
2011,05,29,06,30,63.00
2011,05,29,06,31,63.80
2011,05,29,06,32,65.00
2011,05,29,06,33,66.30
2011,05,29,06,34,67.00
2011,05,29,06,35,68.70
2011,05,29,06,36,70.20
2011,05,29,06,37,74.30
2011,05,29,06,38,78.10
2011,05,29,06,39,89.80
2011,05,29,06,40,109.00
2011,05,29,06,41,115.00
2011,05,29,06,42,97.90
2011,05,29,06,43,90.20
2011,05,29,06,44,107.10
2011,05,29,06,45,127.20
2011,05,29,06,46,126.50
2011,05,29,06,47,121.00
2011,05,29,06,48,107.00
2011,05,29,06,49,81.30
2011,05,29,06,50,88.40
2011,05,29,06,51,119.00
2011,05,29,06,52,144.90
2011,05,29,06,53,161.40
2011,05,29,06,54,165.30
2011,05,29,06,55,167.50
2011,05,29,06,56,169.70
2011,05,29,06,57,172.50
2011,05,29,06,58,175.20
2011,05,29,06,59,177.90
2011,05,29,07,00,179.00
2011,05,29,07,01,179.00
2011,05,29,07,02,184.70
2011,05,29,07,03,186.00
2011,05,29,07,04,190.90
2011,05,29,07,05,194.70
2011,05,29,07,06,198.00
2011,05,29,07,07,200.90
2011,05,29,07,08,203.40
2011,05,29,07,09,206.40
2011,05,29,07,10,210.60
2011,05,29,07,11,213.40
2011,05,29,07,12,216.40
2011,05,29,07,13,219.10
2011,05,29,07,14,221.90
2011,05,29,07,15,223.00
2011,05,29,07,16,225.50
2011,05,29,07,17,227.00
2011,05,29,07,18,229.60
2011,05,29,07,19,234.30
2011,05,29,07,20,237.30
2011,05,29,07,21,239.60
2011,05,29,07,22,242.20
2011,05,29,07,23,245.00
2011,05,29,07,24,247.20
2011,05,29,07,25,249.40
2011,05,29,07,26,250.80
2011,05,29,07,27,225.80
2011,05,29,07,28,145.30
2011,05,29,07,29,130.80
2011,05,29,07,30,134.00
2011,05,29,07,31,141.60
2011,05,29,07,32,143.30
2011,05,29,07,33,137.00
2011,05,29,07,34,180.50
2011,05,29,07,35,180.60
2011,05,29,07,36,132.10
2011,05,29,07,37,122.60
2011,05,29,07,38,120.00
2011,05,29,07,39,119.30
2011,05,29,07,40,118.00
2011,05,29,07,41,118.00
2011,05,29,07,42,118.00
2011,05,29,07,43,122.00
2011,05,29,07,44,124.80
2011,05,29,07,45,129.80
2011,05,29,07,46,130.00
2011,05,29,07,47,134.80
2011,05,29,07,48,148.10
2011,05,29,07,49,153.50
2011,05,29,07,50,160.20
2011,05,29,07,51,168.70
2011,05,29,07,52,176.90
2011,05,29,07,53,184.30
2011,05,29,07,54,202.90
2011,05,29,07,55,230.70
2011,05,29,07,56,211.00
2011,05,29,07,57,215.10
2011,05,29,07,58,220.00
2011,05,29,07,59,320.10
2011,05,29,08,00,324.50
2011,05,29,08,01,308.00
2011,05,29,08,02,236.60
2011,05,29,08,03,244.00
2011,05,29,08,04,244.60
2011,05,29,08,05,251.60
2011,05,29,08,06,260.00
2011,05,29,08,07,297.80
2011,05,29,08,08,291.50
2011,05,29,08,09,335.60
2011,05,29,08,10,359.00
2011,05,29,08,11,327.00
2011,05,29,08,12,327.00
2011,05,29,08,13,313.00
2011,05,29,08,14,282.60
2011,05,29,08,15,279.90
2011,05,29,08,16,283.00
2011,05,29,08,17,291.10
2011,05,29,08,18,310.10
2011,05,29,08,19,314.10
2011,05,29,08,20,339.60
2011,05,29,08,21,348.80
2011,05,29,08,22,321.90
2011,05,29,08,23,375.50
2011,05,29,08,24,422.00
2011,05,29,08,25,355.50
2011,05,29,08,26,393.40
2011,05,29,08,27,410.00
2011,05,29,08,28,391.90
2011,05,29,08,29,227.80
2011,05,29,08,30,220.60
2011,05,29,08,31,216.80
2011,05,29,08,32,221.00
2011,05,29,08,33,216.90
2011,05,29,08,34,216.80
2011,05,29,08,35,218.00
2011,05,29,08,36,218.00
2011,05,29,08,37,245.10
2011,05,29,08,38,473.20
2011,05,29,08,39,467.30
2011,05,29,08,40,466.90
2011,05,29,08,41,468.50
2011,05,29,08,42,471.60
2011,05,29,08,43,476.80
2011,05,29,08,44,479.70
2011,05,29,08,45,480.00
2011,05,29,08,46,479.70
2011,05,29,08,47,478.00
2011,05,29,08,48,479.40
2011,05,29,08,49,483.40
2011,05,29,08,50,487.40
2011,05,29,08,51,491.10
2011,05,29,08,52,492.00
2011,05,29,08,53,492.00
2011,05,29,08,54,504.30
2011,05,29,08,55,497.20
2011,05,29,08,56,471.00
2011,05,29,08,57,354.90
2011,05,29,08,58,230.40
2011,05,29,08,59,275.40
2011,05,29,09,00,295.00
2011,05,29,09,01,295.00
2011,05,29,09,02,295.00
2011,05,29,09,03,295.00
2011,05,29,09,04,289.80
2011,05,29,09,05,274.00
2011,05,29,09,06,274.00
2011,05,29,09,07,274.00
2011,05,29,09,08,442.70
2011,05,29,09,09,447.80
2011,05,29,09,10,474.80
2011,05,29,09,11,463.90
2011,05,29,09,12,427.00
2011,05,29,09,13,472.30
2011,05,29,09,14,584.40
2011,05,29,09,15,594.00
2011,05,29,09,16,594.00
2011,05,29,09,17,594.00
2011,05,29,09,18,594.00
2011,05,29,09,19,479.00
2011,05,29,09,20,473.00
2011,05,29,09,21,430.40
2011,05,29,09,22,329.50
2011,05,29,09,23,334.90
2011,05,29,09,24,306.00
2011,05,29,09,25,315.00
2011,05,29,09,26,566.20
2011,05,29,09,27,645.80
2011,05,29,09,28,599.60
2011,05,29,09,29,566.80
2011,05,29,09,30,496.70
2011,05,29,09,31,475.00
2011,05,29,09,32,549.50
2011,05,29,09,33,565.80
2011,05,29,09,34,547.50
2011,05,29,09,35,614.60
2011,05,29,09,36,640.70
2011,05,29,09,37,621.70
2011,05,29,09,38,610.60
2011,05,29,09,39,652.00
2011,05,29,09,40,661.00
2011,05,29,09,41,666.00
2011,05,29,09,42,668.00
2011,05,29,09,43,664.20
2011,05,29,09,44,655.30
2011,05,29,09,45,646.90
2011,05,29,09,46,637.50
2011,05,29,09,47,635.00
2011,05,29,09,48,635.40
2011,05,29,09,49,635.50
2011,05,29,09,50,635.00
2011,05,29,09,51,632.50
2011,05,29,09,52,631.00
2011,05,29,09,53,632.70
2011,05,29,09,54,631.00
2011,05,29,09,55,631.40
2011,05,29,09,56,633.60
2011,05,29,09,57,635.40
2011,05,29,09,58,639.00
2011,05,29,09,59,642.60
2011,05,29,10,00,644.40
2011,05,29,10,01,646.70
2011,05,29,10,02,649.70
2011,05,29,10,03,654.00
2011,05,29,10,04,655.20
2011,05,29,10,05,659.00
2011,05,29,10,06,660.80
2011,05,29,10,07,663.00
2011,05,29,10,08,663.70
2011,05,29,10,09,664.00
2011,05,29,10,10,665.70
2011,05,29,10,11,667.90
2011,05,29,10,12,668.60
2011,05,29,10,13,670.70
2011,05,29,10,14,670.40
2011,05,29,10,15,673.00
2011,05,29,10,16,677.40
2011,05,29,10,17,681.00
2011,05,29,10,18,683.60
2011,05,29,10,19,686.70
2011,05,29,10,20,687.40
2011,05,29,10,21,691.00
2011,05,29,10,22,691.70
2011,05,29,10,23,694.30
2011,05,29,10,24,698.00
2011,05,29,10,25,704.50
2011,05,29,10,26,710.70
2011,05,29,10,27,714.40
2011,05,29,10,28,714.80
2011,05,29,10,29,711.70
2011,05,29,10,30,710.50
2011,05,29,10,31,710.50
2011,05,29,10,32,704.80
2011,05,29,10,33,702.20
2011,05,29,10,34,701.00
2011,05,29,10,35,704.00
2011,05,29,10,36,705.00
2011,05,29,10,37,717.00
2011,05,29,10,38,717.00
2011,05,29,10,39,718.10
2011,05,29,10,40,721.40
2011,05,29,10,41,724.20
2011,05,29,10,42,727.30
2011,05,29,10,43,728.80
2011,05,29,10,44,730.60
2011,05,29,10,45,731.30
2011,05,29,10,46,737.10
2011,05,29,10,47,738.50
2011,05,29,10,48,741.40
2011,05,29,10,49,744.00
2011,05,29,10,50,746.80
2011,05,29,10,51,749.00
2011,05,29,10,52,750.50
2011,05,29,10,53,751.80
2011,05,29,10,54,752.20
2011,05,29,10,55,756.30
2011,05,29,10,56,758.20
2011,05,29,10,57,759.00
2011,05,29,10,58,760.00
2011,05,29,10,59,762.20
2011,05,29,11,00,763.00
2011,05,29,11,01,764.60
2011,05,29,11,02,767.70
2011,05,29,11,03,770.30
2011,05,29,11,04,772.20
2011,05,29,11,05,773.70
2011,05,29,11,06,775.90
2011,05,29,11,07,778.10
2011,05,29,11,08,777.80
2011,05,29,11,09,777.00
2011,05,29,11,10,777.00
2011,05,29,11,11,777.10
2011,05,29,11,12,779.00
2011,05,29,11,13,779.00
2011,05,29,11,14,780.00
2011,05,29,11,15,782.90
2011,05,29,11,16,784.00
2011,05,29,11,17,780.50
2011,05,29,11,18,742.20
2011,05,29,11,19,723.10
2011,05,29,11,20,701.70
2011,05,29,11,21,519.00
2011,05,29,11,22,539.00
2011,05,29,11,23,597.80
2011,05,29,11,24,613.00
2011,05,29,11,25,724.00
2011,05,29,11,26,800.80
2011,05,29,11,27,807.90
2011,05,29,11,28,811.80
2011,05,29,11,29,814.00
2011,05,29,11,30,813.60
2011,05,29,11,31,812.00
2011,05,29,11,32,811.10
2011,05,29,11,33,811.10
2011,05,29,11,34,813.30
2011,05,29,11,35,814.00
2011,05,29,11,36,815.70
2011,05,29,11,37,816.10
2011,05,29,11,38,817.40
2011,05,29,11,39,819.60
2011,05,29,11,40,822.10
2011,05,29,11,41,823.50
2011,05,29,11,42,823.00
2011,05,29,11,43,823.70
2011,05,29,11,44,824.00
2011,05,29,11,45,825.80
2011,05,29,11,46,826.40
2011,05,29,11,47,830.20
2011,05,29,11,48,830.70
2011,05,29,11,49,830.00
2011,05,29,11,50,830.00
2011,05,29,11,51,830.70
2011,05,29,11,52,831.00
2011,05,29,11,53,832.60
2011,05,29,11,54,834.80
2011,05,29,11,55,833.30
2011,05,29,11,56,835.00
2011,05,29,11,57,835.00
2011,05,29,11,58,835.00
2011,05,29,11,59,836.10
2011,05,29,12,00,839.00
2011,05,29,12,01,841.50
2011,05,29,12,02,845.60
2011,05,29,12,03,846.30
2011,05,29,12,04,848.60
2011,05,29,12,05,847.60
2011,05,29,12,06,849.00
2011,05,29,12,07,849.00
2011,05,29,12,08,851.40
2011,05,29,12,09,851.60
2011,05,29,12,10,851.00
2011,05,29,12,11,849.20
2011,05,29,12,12,851.00
2011,05,29,12,13,851.00
2011,05,29,12,14,852.00
2011,05,29,12,15,853.50
2011,05,29,12,16,853.00
2011,05,29,12,17,853.00
2011,05,29,12,18,853.00
2011,05,29,12,19,853.00
2011,05,29,12,20,855.90
2011,05,29,12,21,856.30
2011,05,29,12,22,858.00
2011,05,29,12,23,858.80
2011,05,29,12,24,860.50
2011,05,29,12,25,862.20
2011,05,29,12,26,863.00
2011,05,29,12,27,864.60
2011,05,29,12,28,865.00
2011,05,29,12,29,865.20
2011,05,29,12,30,867.00
2011,05,29,12,31,867.00
2011,05,29,12,32,866.20
2011,05,29,12,33,866.10
2011,05,29,12,34,867.00
2011,05,29,12,35,867.00
2011,05,29,12,36,867.80
2011,05,29,12,37,868.10
2011,05,29,12,38,870.30
2011,05,29,12,39,871.50
2011,05,29,12,40,870.70
2011,05,29,12,41,873.00
2011,05,29,12,42,874.00
2011,05,29,12,43,874.70
2011,05,29,12,44,875.00
2011,05,29,12,45,876.80
2011,05,29,12,46,879.00
2011,05,29,12,47,878.70
2011,05,29,12,48,876.50
2011,05,29,12,49,875.80
2011,05,29,12,50,877.00
2011,05,29,12,51,877.00
2011,05,29,12,52,877.00
2011,05,29,12,53,877.00
2011,05,29,12,54,878.90
2011,05,29,12,55,881.00
2011,05,29,12,56,881.00
2011,05,29,12,57,881.30
2011,05,29,12,58,882.00
2011,05,29,12,59,882.00
2011,05,29,13,00,882.00
2011,05,29,13,01,882.00
2011,05,29,13,02,882.00
2011,05,29,13,03,882.00
2011,05,29,13,04,882.00
2011,05,29,13,05,882.00
2011,05,29,13,06,882.00
2011,05,29,13,07,882.00
2011,05,29,13,08,882.00
2011,05,29,13,09,881.30
2011,05,29,13,10,881.80
2011,05,29,13,11,883.70
2011,05,29,13,12,882.20
2011,05,29,13,13,883.60
2011,05,29,13,14,882.00
2011,05,29,13,15,881.50
2011,05,29,13,16,881.00
2011,05,29,13,17,881.00
2011,05,29,13,18,881.80
2011,05,29,13,19,882.00
2011,05,29,13,20,883.90
2011,05,29,13,21,884.00
2011,05,29,13,22,884.00
2011,05,29,13,23,884.00
2011,05,29,13,24,884.00
2011,05,29,13,25,884.00
2011,05,29,13,26,884.00
2011,05,29,13,27,882.50
2011,05,29,13,28,882.00
2011,05,29,13,29,882.00
2011,05,29,13,30,882.00
2011,05,29,13,31,882.00
2011,05,29,13,32,882.00
2011,05,29,13,33,880.50
2011,05,29,13,34,879.00
2011,05,29,13,35,879.00
2011,05,29,13,36,880.60
2011,05,29,13,37,881.00
2011,05,29,13,38,881.90
2011,05,29,13,39,881.00
2011,05,29,13,40,879.70
2011,05,29,13,41,877.90
2011,05,29,13,42,877.90
2011,05,29,13,43,878.30
2011,05,29,13,44,879.00
2011,05,29,13,45,879.00
2011,05,29,13,46,879.00
2011,05,29,13,47,879.00
2011,05,29,13,48,879.00
2011,05,29,13,49,879.70
2011,05,29,13,50,881.00
2011,05,29,13,51,879.80
2011,05,29,13,52,879.00
2011,05,29,13,53,879.00
2011,05,29,13,54,880.80
2011,05,29,13,55,880.80
2011,05,29,13,56,878.60
2011,05,29,13,57,877.00
2011,05,29,13,58,877.80
2011,05,29,13,59,878.00
2011,05,29,14,00,875.80
2011,05,29,14,01,875.00
2011,05,29,14,02,876.60
2011,05,29,14,03,876.90
2011,05,29,14,04,875.00
2011,05,29,14,05,874.80
2011,05,29,14,06,873.30
2011,05,29,14,07,872.00
2011,05,29,14,08,870.90
2011,05,29,14,09,870.00
2011,05,29,14,10,870.00
2011,05,29,14,11,870.00
2011,05,29,14,12,870.00
2011,05,29,14,13,870.00
2011,05,29,14,14,869.50
2011,05,29,14,15,868.00
2011,05,29,14,16,868.00
2011,05,29,14,17,868.00
2011,05,29,14,18,867.30
2011,05,29,14,19,865.30
2011,05,29,14,20,865.00
2011,05,29,14,21,863.00
2011,05,29,14,22,863.00
2011,05,29,14,23,863.00
2011,05,29,14,24,862.10
2011,05,29,14,25,862.10
2011,05,29,14,26,863.00
2011,05,29,14,27,863.00
2011,05,29,14,28,861.30
2011,05,29,14,29,860.00
2011,05,29,14,30,858.00
2011,05,29,14,31,857.50
2011,05,29,14,32,856.00
2011,05,29,14,33,854.70
2011,05,29,14,34,853.00
2011,05,29,14,35,853.00
2011,05,29,14,36,851.40
2011,05,29,14,37,849.20
2011,05,29,14,38,849.00
2011,05,29,14,39,848.60
2011,05,29,14,40,847.00
2011,05,29,14,41,846.60
2011,05,29,14,42,845.00
2011,05,29,14,43,844.00
2011,05,29,14,44,842.60
2011,05,29,14,45,840.30
2011,05,29,14,46,838.20
2011,05,29,14,47,836.70
2011,05,29,14,48,834.50
2011,05,29,14,49,832.30
2011,05,29,14,50,831.00
2011,05,29,14,51,830.50
2011,05,29,14,52,830.00
2011,05,29,14,53,828.50
2011,05,29,14,54,826.20
2011,05,29,14,55,824.00
2011,05,29,14,56,823.00
2011,05,29,14,57,822.40
2011,05,29,14,58,820.20
2011,05,29,14,59,819.00
2011,05,29,15,00,817.30
2011,05,29,15,01,814.60
2011,05,29,15,02,814.00
2011,05,29,15,03,812.20
2011,05,29,15,04,814.00
2011,05,29,15,05,813.60
2011,05,29,15,06,812.00
2011,05,29,15,07,811.10
2011,05,29,15,08,810.00
2011,05,29,15,09,808.00
2011,05,29,15,10,807.00
2011,05,29,15,11,805.30
2011,05,29,15,12,804.90
2011,05,29,15,13,802.40
2011,05,29,15,14,799.40
2011,05,29,15,15,797.30
2011,05,29,15,16,796.00
2011,05,29,15,17,796.00
2011,05,29,15,18,795.30
2011,05,29,15,19,795.00
2011,05,29,15,20,791.40
2011,05,29,15,21,790.80
2011,05,29,15,22,789.00
2011,05,29,15,23,788.00
2011,05,29,15,24,786.00
2011,05,29,15,25,786.00
2011,05,29,15,26,784.80
2011,05,29,15,27,782.50
2011,05,29,15,28,780.40
2011,05,29,15,29,777.10
2011,05,29,15,30,774.70
2011,05,29,15,31,773.00
2011,05,29,15,32,772.60
2011,05,29,15,33,772.00
2011,05,29,15,34,770.90
2011,05,29,15,35,770.00
2011,05,29,15,36,768.40
2011,05,29,15,37,765.30
2011,05,29,15,38,761.00
2011,05,29,15,39,760.50
2011,05,29,15,40,757.00
2011,05,29,15,41,754.00
2011,05,29,15,42,754.00
2011,05,29,15,43,752.20
2011,05,29,15,44,751.70
2011,05,29,15,45,752.00
2011,05,29,15,46,749.20
2011,05,29,15,47,748.70
2011,05,29,15,48,746.40
2011,05,29,15,49,742.00
2011,05,29,15,50,738.00
2011,05,29,15,51,737.50
2011,05,29,15,52,734.40
2011,05,29,15,53,731.50
2011,05,29,15,54,731.00
2011,05,29,15,55,729.10
2011,05,29,15,56,728.50
2011,05,29,15,57,725.50
2011,05,29,15,58,723.30
2011,05,29,15,59,721.50
2011,05,29,16,00,718.60
2011,05,29,16,01,717.00
2011,05,29,16,02,715.40
2011,05,29,16,03,712.40
2011,05,29,16,04,712.00
2011,05,29,16,05,711.20
2011,05,29,16,06,705.70
2011,05,29,16,07,702.20
2011,05,29,16,08,700.50
2011,05,29,16,09,700.00
2011,05,29,16,10,697.10
2011,05,29,16,11,694.30
2011,05,29,16,12,693.00
2011,05,29,16,13,690.70
2011,05,29,16,14,688.30
2011,05,29,16,15,685.30
2011,05,29,16,16,683.10
2011,05,29,16,17,680.90
2011,05,29,16,18,679.30
2011,05,29,16,19,677.40
2011,05,29,16,20,673.40
2011,05,29,16,21,671.10
2011,05,29,16,22,670.80
2011,05,29,16,23,670.00
2011,05,29,16,24,668.50
2011,05,29,16,25,663.50
2011,05,29,16,26,661.00
2011,05,29,16,27,657.70
2011,05,29,16,28,658.50
2011,05,29,16,29,657.00
2011,05,29,16,30,653.60
2011,05,29,16,31,649.20
2011,05,29,16,32,646.30
2011,05,29,16,33,644.10
2011,05,29,16,34,643.00
2011,05,29,16,35,642.30
2011,05,29,16,36,642.00
2011,05,29,16,37,640.30
2011,05,29,16,38,636.20
2011,05,29,16,39,635.00
2011,05,29,16,40,634.50
2011,05,29,16,41,632.30
2011,05,29,16,42,629.60
2011,05,29,16,43,625.60
2011,05,29,16,44,621.90
2011,05,29,16,45,618.00
2011,05,29,16,46,616.90
2011,05,29,16,47,614.70
2011,05,29,16,48,611.50
2011,05,29,16,49,609.30
2011,05,29,16,50,605.80
2011,05,29,16,51,602.00
2011,05,29,16,52,593.20
2011,05,29,16,53,599.30
2011,05,29,16,54,593.40
2011,05,29,16,55,590.70
2011,05,29,16,56,585.00
2011,05,29,16,57,585.00
2011,05,29,16,58,585.60
2011,05,29,16,59,588.00
2011,05,29,17,00,589.00
2011,05,29,17,01,587.60
2011,05,29,17,02,555.50
2011,05,29,17,03,590.90
2011,05,29,17,04,593.20
2011,05,29,17,05,483.00
2011,05,29,17,06,483.00